EZY67LM LSZH-EGKK

Flight info

Callsign EZY67LM
Flight time 1h 14m
Altitude 38000
Route VEBIT T10 TORPA DCT REKLA DCT RLP DCT ROTSI DCT KOTUN DCT NINAL DCT KESAX DCT KUNAV
Aircraft A320/M-SDE3FGHIRWY/LB1

Departure

Time 2026-04-26 14:07
Airport Zürich Airport (LSZH)

Arrival

Time 2026-04-26 15:21
Airport London Gatwick Airport (EGKK)
Time Latitude Longitude Altitude Speed Heading
2026-04-26 13:48 47.46050 8.55587 1405 ft 0 kts
2026-04-26 13:57 47.46047 8.55586 1423 ft 3 kts
2026-04-26 13:57 47.46021 8.55581 1403 ft 4 kts 11°
2026-04-26 13:57 47.45995 8.55572 1405 ft 4 kts 19°
2026-04-26 13:57 47.45972 8.55555 1407 ft 4 kts 46°
2026-04-26 13:58 47.45963 8.55531 1408 ft 1 kts 96°
2026-04-26 13:58 47.45963 8.55525 1408 ft 0 kts 96°
2026-04-26 13:59 47.45964 8.55525 1408 ft 0 kts 96°
2026-04-26 14:00 47.45962 8.55551 1403 ft 4 kts 96°
2026-04-26 14:00 47.45958 8.55595 1401 ft 9 kts 96°
2026-04-26 14:01 47.45948 8.55744 1406 ft 16 kts 96°
2026-04-26 14:01 47.45934 8.55943 1413 ft 23 kts 96°
2026-04-26 14:01 47.45918 8.56177 1413 ft 17 kts 95°
2026-04-26 14:01 47.45905 8.56352 1420 ft 17 kts 95°
2026-04-26 14:02 47.45847 8.56487 1421 ft 16 kts 137°
2026-04-26 14:02 47.45795 8.56630 1419 ft 17 kts 95°
2026-04-26 14:02 47.45782 8.56810 1421 ft 18 kts 96°
2026-04-26 14:02 47.45775 8.56909 1423 ft 4 kts 96°
2026-04-26 14:03 47.45774 8.56927 1423 ft 0 kts 96°
2026-04-26 14:03 47.45773 8.56933 1423 ft 4 kts 96°
2026-04-26 14:03 47.45755 8.57007 1425 ft 8 kts 131°
2026-04-26 14:03 47.45715 8.57035 1425 ft 6 kts 179°
2026-04-26 14:04 47.45675 8.57027 1425 ft 5 kts 196°
2026-04-26 14:04 47.45665 8.56987 1424 ft 4 kts 271°
2026-04-26 14:04 47.45667 8.56953 1424 ft 3 kts 275°
2026-04-26 14:04 47.45667 8.56940 1424 ft 0 kts 276°
2026-04-26 14:06 47.45675 8.56838 1422 ft 35 kts 277°
2026-04-26 14:06 47.45731 8.56051 1414 ft 114 kts 276°
2026-04-26 14:07 47.45837 8.54568 1419 ft 170 kts 276°
2026-04-26 14:07 47.45990 8.52816 2071 ft 174 kts 281°
2026-04-26 14:07 47.46161 8.51027 2882 ft 178 kts 281°
2026-04-26 14:07 47.46300 8.49101 3416 ft 200 kts 276°
2026-04-26 14:08 47.45950 8.47009 3853 ft 227 kts 235°
2026-04-26 14:08 47.44774 8.45303 4320 ft 248 kts 221°
2026-04-26 14:08 47.43438 8.43554 4902 ft 270 kts 224°
2026-04-26 14:08 47.42161 8.41436 5003 ft 277 kts 231°
2026-04-26 14:09 47.40996 8.39143 5011 ft 279 kts 234°
2026-04-26 14:09 47.39873 8.36790 5173 ft 282 kts 235°
2026-04-26 14:09 47.38762 8.34412 6306 ft 280 kts 238°
2026-04-26 14:09 47.37972 8.31796 7355 ft 280 kts 248°
2026-04-26 14:10 47.37165 8.29157 8302 ft 284 kts 244°
2026-04-26 14:10 47.36256 8.26563 9298 ft 286 kts 242°
2026-04-26 14:10 47.35305 8.23985 10314 ft 287 kts 241°
2026-04-26 14:10 47.34322 8.21348 10733 ft 309 kts 242°
2026-04-26 14:11 47.32179 8.15504 11988 ft 331 kts 243°
2026-04-26 14:11 47.31090 8.12487 12848 ft 335 kts 244°
2026-04-26 14:11 47.30003 8.09451 13733 ft 336 kts 243°
2026-04-26 14:12 47.28909 8.06377 14473 ft 341 kts 244°
2026-04-26 14:12 47.27898 8.03202 15151 ft 344 kts 252°
2026-04-26 14:12 47.27345 7.99771 15881 ft 346 kts 264°
2026-04-26 14:12 47.27300 7.96230 16601 ft 348 kts 275°
2026-04-26 14:13 47.27970 7.89122 18020 ft 354 kts 278°
2026-04-26 14:13 47.28320 7.85501 18695 ft 358 kts 278°
2026-04-26 14:13 47.28668 7.81858 19300 ft 361 kts 278°
2026-04-26 14:14 47.29017 7.78190 19896 ft 364 kts 278°
2026-04-26 14:14 47.29367 7.74484 20511 ft 366 kts 278°
2026-04-26 14:14 47.29717 7.70753 21106 ft 369 kts 278°
2026-04-26 14:14 47.30068 7.66995 21702 ft 371 kts 278°
2026-04-26 14:15 47.30461 7.63221 22268 ft 374 kts 282°
2026-04-26 14:15 47.31189 7.59524 22824 ft 377 kts 288°
2026-04-26 14:15 47.31999 7.55834 23382 ft 380 kts 288°
2026-04-26 14:15 47.32816 7.52109 23899 ft 383 kts 287°
2026-04-26 14:16 47.33632 7.48358 24347 ft 386 kts 287°
2026-04-26 14:16 47.34440 7.44625 24789 ft 388 kts 288°
2026-04-26 14:16 47.35262 7.40821 25234 ft 391 kts 288°
2026-04-26 14:16 47.36089 7.36989 25705 ft 393 kts 288°
2026-04-26 14:17 47.36920 7.33136 26169 ft 395 kts 288°
2026-04-26 14:17 47.37753 7.29264 26607 ft 397 kts 288°
2026-04-26 14:17 47.38588 7.25375 27046 ft 399 kts 288°
2026-04-26 14:17 47.39428 7.21457 27464 ft 401 kts 288°
2026-04-26 14:18 47.40270 7.17518 27900 ft 404 kts 288°
2026-04-26 14:18 47.41007 7.13507 28319 ft 406 kts 283°
2026-04-26 14:18 47.41607 7.09420 28734 ft 409 kts 283°
2026-04-26 14:18 47.42212 7.05306 29126 ft 411 kts 284°
2026-04-26 14:19 47.42822 7.01161 29486 ft 414 kts 284°
2026-04-26 14:19 47.43435 6.96990 29875 ft 416 kts 284°
2026-04-26 14:19 47.44047 6.92798 30250 ft 419 kts 284°
2026-04-26 14:19 47.44660 6.88580 30570 ft 421 kts 283°
2026-04-26 14:20 47.45274 6.84336 30872 ft 423 kts 283°
2026-04-26 14:20 47.45891 6.80079 31186 ft 425 kts 283°
2026-04-26 14:20 47.46510 6.75803 31485 ft 426 kts 283°
2026-04-26 14:20 47.47127 6.71511 31792 ft 428 kts 283°
2026-04-26 14:21 47.47744 6.67202 32170 ft 427 kts 283°
2026-04-26 14:21 47.48159 6.62851 32571 ft 428 kts 278°
2026-04-26 14:21 47.48469 6.58540 32983 ft 427 kts 278°
2026-04-26 14:21 47.48789 6.54132 33410 ft 425 kts 278°
2026-04-26 14:22 47.49100 6.49842 33830 ft 424 kts 278°
2026-04-26 14:22 47.49411 6.45516 34255 ft 423 kts 277°
2026-04-26 14:22 47.49719 6.41197 34615 ft 422 kts 277°
2026-04-26 14:22 47.50024 6.36887 34953 ft 421 kts 277°
2026-04-26 14:23 47.50324 6.32583 35274 ft 421 kts 277°
2026-04-26 14:23 47.50622 6.28277 35589 ft 420 kts 277°
2026-04-26 14:23 47.50918 6.23979 35883 ft 420 kts 277°
2026-04-26 14:23 47.51214 6.19679 36176 ft 420 kts 277°
2026-04-26 14:24 47.51511 6.15390 36464 ft 420 kts 277°
2026-04-26 14:24 47.51809 6.11090 36748 ft 419 kts 277°
2026-04-26 14:24 47.52104 6.06802 37026 ft 419 kts 277°
2026-04-26 14:24 47.52396 6.02519 37303 ft 419 kts 277°
2026-04-26 14:25 47.52683 5.98236 37572 ft 418 kts 277°
2026-04-26 14:25 47.52968 5.93944 37843 ft 418 kts 277°
2026-04-26 14:25 47.53426 5.89710 38089 ft 416 kts 285°
2026-04-26 14:26 47.55737 5.81962 38170 ft 411 kts 305°
2026-04-26 14:26 47.59442 5.75621 38171 ft 410 kts 313°
2026-04-26 14:27 47.63308 5.69402 38172 ft 410 kts 313°
2026-04-26 14:27 47.67165 5.63177 38187 ft 410 kts 312°
2026-04-26 14:28 47.71012 5.56945 38178 ft 409 kts 312°
2026-04-26 14:28 47.74852 5.50707 38184 ft 409 kts 312°
2026-04-26 14:29 47.78036 5.45513 38172 ft 409 kts 312°
2026-04-26 14:29 47.81864 5.39259 38186 ft 409 kts 313°
2026-04-26 14:30 47.85696 5.33006 38187 ft 408 kts 312°
2026-04-26 14:30 47.89517 5.26747 38201 ft 408 kts 312°
2026-04-26 14:31 47.93329 5.20481 38201 ft 408 kts 312°
2026-04-26 14:31 47.97134 5.14213 38202 ft 408 kts 312°
2026-04-26 14:32 48.00947 5.07943 38183 ft 408 kts 313°
2026-04-26 14:32 48.04725 5.01705 38192 ft 407 kts 312°
2026-04-26 14:33 48.08521 4.95406 38195 ft 407 kts 312°
2026-04-26 14:33 48.12317 4.89098 38208 ft 407 kts 312°
2026-04-26 14:34 48.16112 4.82787 38209 ft 407 kts 312°
2026-04-26 14:34 48.19899 4.76469 38210 ft 407 kts 312°
2026-04-26 14:35 48.23681 4.70138 38193 ft 407 kts 312°
2026-04-26 14:35 48.27458 4.63793 38197 ft 407 kts 312°
2026-04-26 14:36 48.31210 4.57488 38212 ft 407 kts 312°
2026-04-26 14:36 48.34983 4.51128 38219 ft 407 kts 312°
2026-04-26 14:37 48.38752 4.44757 38225 ft 407 kts 312°
2026-04-26 14:37 48.42518 4.38377 38230 ft 407 kts 312°
2026-04-26 14:38 48.46273 4.31996 38229 ft 407 kts 312°
2026-04-26 14:38 48.50028 4.25607 38220 ft 407 kts 312°
2026-04-26 14:39 48.53781 4.19203 38231 ft 407 kts 311°
2026-04-26 14:39 48.57506 4.12834 38237 ft 407 kts 311°
2026-04-26 14:40 48.61248 4.06412 38254 ft 407 kts 311°
2026-04-26 14:40 48.64993 3.99983 38253 ft 407 kts 311°
2026-04-26 14:41 48.68733 3.93543 38253 ft 407 kts 311°
2026-04-26 14:41 48.72461 3.87097 38250 ft 407 kts 312°
2026-04-26 14:42 48.76397 3.80940 38250 ft 407 kts 316°
2026-04-26 14:42 48.80496 3.75035 38245 ft 406 kts 316°
2026-04-26 14:43 48.84579 3.69107 38240 ft 406 kts 316°
2026-04-26 14:43 48.88589 3.63130 38242 ft 406 kts 315°
2026-04-26 14:44 48.92599 3.57078 38242 ft 406 kts 315°
2026-04-26 14:44 48.96616 3.51031 38234 ft 406 kts 315°
2026-04-26 14:45 49.00636 3.44983 38233 ft 406 kts 315°
2026-04-26 14:45 49.04655 3.38933 38241 ft 406 kts 315°
2026-04-26 14:46 49.08674 3.32853 38241 ft 406 kts 315°
2026-04-26 14:46 49.12682 3.26762 38241 ft 407 kts 315°
2026-04-26 14:47 49.16694 3.20662 38240 ft 407 kts 315°
2026-04-26 14:47 49.20702 3.14554 38244 ft 407 kts 315°
2026-04-26 14:48 49.24709 3.08429 38239 ft 407 kts 314°
2026-04-26 14:48 49.28718 3.02292 38254 ft 408 kts 314°
2026-04-26 14:49 49.32702 2.96186 38254 ft 408 kts 314°
2026-04-26 14:49 49.36711 2.90023 38253 ft 408 kts 314°
2026-04-26 14:50 49.40712 2.83846 38254 ft 407 kts 314°
2026-04-26 14:50 49.44708 2.77662 38254 ft 407 kts 314°
2026-04-26 14:51 49.48697 2.71477 38253 ft 407 kts 314°
2026-04-26 14:51 49.52655 2.65321 38253 ft 407 kts 314°
2026-04-26 14:52 49.56644 2.59105 38249 ft 408 kts 314°
2026-04-26 14:52 49.60627 2.52872 38249 ft 408 kts 313°
2026-04-26 14:53 49.64402 2.46348 38253 ft 408 kts 309°
2026-04-26 14:53 49.68020 2.39592 38257 ft 408 kts 309°
2026-04-26 14:54 49.71637 2.32843 38262 ft 408 kts 309°
2026-04-26 14:54 49.75296 2.26132 38271 ft 408 kts 309°
2026-04-26 14:55 49.78969 2.19442 38260 ft 408 kts 309°
2026-04-26 14:55 49.82644 2.12720 38264 ft 409 kts 309°
2026-04-26 14:56 49.86285 2.06028 38267 ft 409 kts 309°
2026-04-26 14:56 49.89949 1.99262 38268 ft 409 kts 309°
2026-04-26 14:57 49.93612 1.92489 38268 ft 410 kts 309°
2026-04-26 14:57 49.97272 1.85694 38278 ft 410 kts 309°
2026-04-26 14:58 50.00927 1.78891 38270 ft 410 kts 308°
2026-04-26 14:58 50.04581 1.72085 38268 ft 410 kts 308°
2026-04-26 14:59 50.08444 1.65560 38265 ft 411 kts 317°
2026-04-26 14:59 50.12772 1.59716 38263 ft 411 kts 317°
2026-04-26 15:00 50.17065 1.53897 38263 ft 411 kts 317°
2026-04-26 15:00 50.21376 1.48013 38277 ft 412 kts 317°
2026-04-26 15:01 50.25688 1.42118 38279 ft 412 kts 317°
2026-04-26 15:01 50.30006 1.36214 38273 ft 412 kts 316°
2026-04-26 15:02 50.34323 1.30292 38274 ft 413 kts 316°
2026-04-26 15:02 50.38608 1.24394 38276 ft 413 kts 316°
2026-04-26 15:03 50.42926 1.18444 37938 ft 415 kts 316°
2026-04-26 15:03 50.45108 1.15426 36448 ft 422 kts 316°
2026-04-26 15:03 50.47334 1.12341 34949 ft 429 kts 316°
2026-04-26 15:03 50.49561 1.09252 33783 ft 426 kts 316°
2026-04-26 15:04 50.51735 1.06142 32830 ft 415 kts 311°
2026-04-26 15:04 50.53663 1.02932 32418 ft 395 kts 310°
2026-04-26 15:04 50.55518 0.99828 31703 ft 384 kts 310°
2026-04-26 15:04 50.57329 0.96779 30887 ft 378 kts 310°
2026-04-26 15:05 50.59111 0.93764 29995 ft 374 kts 310°
2026-04-26 15:05 50.60277 0.91790 29343 ft 371 kts 310°
2026-04-26 15:05 50.62651 0.87761 27613 ft 377 kts 310°
2026-04-26 15:05 50.64419 0.84757 26447 ft 379 kts 310°
2026-04-26 15:06 50.66214 0.81707 25312 ft 380 kts 310°
2026-04-26 15:06 50.68008 0.78620 24127 ft 382 kts 308°
2026-04-26 15:06 50.69736 0.75421 22812 ft 384 kts 307°
2026-04-26 15:06 50.71419 0.72129 21494 ft 385 kts 306°
2026-04-26 15:07 50.74728 0.65470 19032 ft 385 kts 306°
2026-04-26 15:07 50.76384 0.62144 17735 ft 384 kts 306°
2026-04-26 15:07 50.78029 0.58870 16964 ft 371 kts 307°
2026-04-26 15:08 50.79604 0.55760 16032 ft 362 kts 307°
2026-04-26 15:08 50.81188 0.52638 14807 ft 365 kts 307°
2026-04-26 15:08 50.82783 0.49500 13546 ft 366 kts 307°
2026-04-26 15:08 50.84376 0.46366 12244 ft 365 kts 307°
2026-04-26 15:09 50.85962 0.43238 10983 ft 363 kts 307°
2026-04-26 15:09 50.87531 0.40136 9710 ft 359 kts 307°
2026-04-26 15:09 50.89083 0.37061 8418 ft 355 kts 308°
2026-04-26 15:09 50.90592 0.34065 7539 ft 343 kts 308°
2026-04-26 15:10 50.92026 0.31217 7130 ft 318 kts 308°
2026-04-26 15:10 50.92937 0.29403 7035 ft 306 kts 308°
2026-04-26 15:10 50.94556 0.25927 6863 ft 286 kts 297°
2026-04-26 15:10 50.95285 0.23071 6750 ft 273 kts 290°
2026-04-26 15:11 50.95933 0.20318 6623 ft 260 kts 290°
2026-04-26 15:11 50.96551 0.17688 6487 ft 249 kts 290°
2026-04-26 15:11 50.97150 0.15138 6237 ft 244 kts 290°
2026-04-26 15:11 50.97735 0.12633 6061 ft 242 kts 290°
2026-04-26 15:12 50.98319 0.10130 5894 ft 241 kts 290°
2026-04-26 15:12 50.98901 0.07639 5730 ft 241 kts 290°
2026-04-26 15:12 50.99483 0.05152 5566 ft 240 kts 290°
2026-04-26 15:12 51.00063 0.02670 5408 ft 239 kts 290°
2026-04-26 15:13 51.00640 0.00186 5240 ft 240 kts 290°
2026-04-26 15:13 51.01221 -0.02306 5086 ft 242 kts 290°
2026-04-26 15:13 51.01584 -0.04970 4898 ft 252 kts 274°
2026-04-26 15:13 51.01666 -0.07748 4681 ft 251 kts 271°
2026-04-26 15:14 51.01726 -0.10511 4381 ft 248 kts 271°
2026-04-26 15:14 51.01827 -0.13207 4225 ft 240 kts 274°
2026-04-26 15:14 51.01957 -0.15840 4074 ft 239 kts 274°
2026-04-26 15:14 51.02051 -0.18446 3999 ft 239 kts 272°
2026-04-26 15:15 51.02150 -0.21073 4001 ft 237 kts 280°
2026-04-26 15:15 51.02746 -0.23420 4001 ft 224 kts 302°
2026-04-26 15:15 51.03532 -0.25477 3977 ft 214 kts 301°
2026-04-26 15:15 51.04295 -0.27481 3842 ft 208 kts 301°
2026-04-26 15:16 51.05038 -0.29435 3707 ft 204 kts 302°
2026-04-26 15:16 51.05765 -0.31348 3610 ft 199 kts 302°
2026-04-26 15:16 51.06465 -0.33191 3268 ft 193 kts 302°
2026-04-26 15:16 51.07156 -0.35010 2790 ft 190 kts 301°
2026-04-26 15:17 51.07844 -0.36808 2258 ft 189 kts 303°
2026-04-26 15:17 51.08401 -0.37745 2363 ft 166 kts 327°
2026-04-26 15:17 51.09830 -0.38262 2490 ft 160 kts 14°
2026-04-26 15:17 51.10906 -0.37844 2427 ft 158 kts 25°
2026-04-26 15:18 51.11773 -0.36849 2442 ft 157 kts 55°
2026-04-26 15:18 51.12365 -0.35381 2083 ft 159 kts 63°
2026-04-26 15:18 51.12762 -0.33860 1866 ft 141 kts 77°
2026-04-26 15:18 51.12980 -0.32390 1661 ft 133 kts 80°
2026-04-26 15:19 51.13106 -0.31434 1579 ft 132 kts 81°
2026-04-26 15:19 51.13298 -0.30005 1414 ft 131 kts 80°
2026-04-26 15:19 51.13493 -0.28584 1251 ft 130 kts 81°
2026-04-26 15:19 51.13688 -0.27165 1072 ft 131 kts 80°
2026-04-26 15:20 51.13882 -0.25769 897 ft 128 kts 78°
2026-04-26 15:20 51.14073 -0.24381 724 ft 128 kts 77°
2026-04-26 15:20 51.14255 -0.22974 528 ft 130 kts 77°
2026-04-26 15:20 51.14462 -0.21581 357 ft 128 kts 77°
2026-04-26 15:21 51.14651 -0.20206 228 ft 125 kts 76°
2026-04-26 15:21 51.14820 -0.18987 207 ft 99 kts 77°
2026-04-26 15:21 51.14936 -0.18148 210 ft 58 kts 77°
2026-04-26 15:21 51.15024 -0.17863 206 ft 22 kts 54°
2026-04-26 15:22 51.15100 -0.17756 207 ft 0 kts
2026-04-26 15:23 51.15110 -0.17756 207 ft 5 kts
2026-04-26 15:23 51.15151 -0.17762 205 ft 6 kts 353°
2026-04-26 15:24 51.15186 -0.17769 212 ft 5 kts 352°
2026-04-26 15:24 51.15216 -0.17779 205 ft 5 kts 341°
2026-04-26 15:24 51.15241 -0.17817 217 ft 5 kts 295°
2026-04-26 15:24 51.15242 -0.17874 210 ft 5 kts 262°
2026-04-26 15:25 51.15232 -0.17940 208 ft 8 kts 258°
2026-04-26 15:25 51.15224 -0.18002 208 ft 9 kts 258°
2026-04-26 15:25 51.15252 -0.18095 206 ft 7 kts 339°
2026-04-26 15:25 51.15300 -0.18113 204 ft 7 kts 347°
2026-04-26 15:26 51.15353 -0.18132 206 ft 12 kts 348°
2026-04-26 15:26 51.15447 -0.18168 213 ft 14 kts 342°
2026-04-26 15:26 51.15546 -0.18209 213 ft 15 kts 347°
2026-04-26 15:26 51.15651 -0.18223 212 ft 16 kts 26°
2026-04-26 15:27 51.15756 -0.18180 208 ft 18 kts 347°
2026-04-26 15:27 51.15888 -0.18226 204 ft 20 kts 348°
2026-04-26 15:27 51.15984 -0.18258 215 ft 13 kts 351°
2026-04-26 15:27 51.16036 -0.18185 204 ft 5 kts 66°
2026-04-26 15:28 51.16048 -0.18135 207 ft 4 kts 75°
2026-04-26 15:28 51.16054 -0.18091 215 ft 4 kts 77°
2026-04-26 15:28 51.16059 -0.18055 206 ft 2 kts 77°
2026-04-26 15:28 51.16061 -0.18041 207 ft 1 kts 77°
2026-04-26 15:29 51.16062 -0.18035 206 ft 0 kts 77°
2026-04-26 15:29 51.16063 -0.18031 205 ft 1 kts 77°
2026-04-26 15:29 51.16064 -0.18024 206 ft 0 kts 77°